Location: Bacea
(45.9500°N, 22.6667°E)
Time: 01:50:11
(UTC+00:00)

Okean-O - Pass Details

Date: 16 October 2021
Orbit: 639 x 640 km, 98.2° (Epoch: 02 December)

Event Time Altitude Azimuth Distance (km) Brightness Sun altitude
Exits shadow 16:30:02 - 113° (ESE) 2,124 4.8 -9.2°
Reaches altitude 10° 16:30:20 10° 110° (ESE) 2,033 4.6 -9.2°
Maximum altitude 16:33:34 20° 63° (ENE) 1,470 3.9 -9.8°
Drops below altitude 10° 16:36:50 10° 16° (NNE) 2,043 5.0 -10.4°
Sets 16:39:29 0° 360° (N) 2,958 6.0 -10.8°
